CW1334 Weather Reports


Display with metric or nautical units.
time (UTC)temp
F
wind
direction
speed
MPH
gust
MPH
rain 1hr
in
rain 24hr
in
rain mn
in
humidity
%
barometer
mb
20180622221950 76 280 14.0 24.0 0.00 0.00 0.00 40 1008.6
20180622220150 77 292 15.0 30.0 0.00 0.00 0.00 38 1008.5
20180622212550 77 310 15.0 24.0 0.00 0.00 0.00 36 1008.5
20180622211650 78 293 13.0 21.0 0.00 0.00 0.00 35 1008.7
20180622210750 78 303 11.0 21.0 0.00 0.00 0.00 36 1008.8
20180622205850 77 313 12.0 21.0 0.00 0.00 0.00 35 1008.7
20180622204050 78 308 11.0 20.0 0.00 0.00 0.00 35 1009.1
20180622202250 78 286 13.0 21.0 0.00 0.00 0.00 33 1009.3
20180622200450 75 307 12.0 21.0 0.00 0.00 0.00 40 1009.4
20180622195550 77 311 10.0 19.0 0.00 0.00 0.00 35 1009.5
20180622194650 76 309 10.0 20.0 0.00 0.00 0.00 36 1009.5
20180622193750 76 305 9.0 17.0 0.00 0.00 0.00 37 1009.6
20180622191950 77 310 11.0 20.0 0.00 0.00 0.00 36 1009.7
20180622191050 76 312 12.0 22.0 0.00 0.00 0.00 38 1009.7
20180622190150 76 319 12.0 20.0 0.00 0.00 0.00 39 1009.7
20180622183450 76 304 12.0 19.0 0.00 0.00 0.00 41 1009.8
20180622181650 76 310 12.0 19.0 0.00 0.00 0.00 42 1010.0
20180622175850 76 293 13.0 22.0 0.00 0.00 0.00 44 1010.0
20180622174950 75 299 15.0 24.0 0.00 0.00 0.00 44 1010.0
20180622172250 74 283 14.0 27.0 0.00 0.00 0.00 43 1010.2
20180622170450 74 1 10.0 18.0 0.00 0.00 0.00 49 1010.3
20180622165550 73 1 12.0 20.0 0.00 0.00 0.00 47 1010.3
20180622163750 72 1 12.0 19.0 0.00 0.00 0.00 48 1010.3
20180622162849 72 1 12.0 19.0 0.00 0.00 0.00 47 1010.3
20180622161050 72 1 15.0 23.0 0.00 0.00 0.00 46 1010.2
20180622160150 72 1 14.0 22.0 0.00 0.00 0.00 46 1010.2
20180622155250 71 1 15.0 23.0 0.00 0.00 0.00 46 1010.3
20180622153450 70 350 11.0 19.0 0.00 0.00 0.00 48 1010.3
20180622150749 70 357 13.0 24.0 0.00 0.00 0.00 49 1010.3
20180622144950 69 359 16.0 24.0 0.00 0.00 0.00 55 1010.2
20180622144050 68 340 15.0 23.0 0.00 0.00 0.00 52 1010.1
20180622143149 67 339 15.0 25.0 0.00 0.00 0.00 53 1010.1
20180622140449 65 342 14.0 23.0 0.00 0.00 0.00 58 1010.2
20180622134649 63 345 10.0 19.0 0.00 0.00 0.00 62 1010.3
20180622130149 60 326 6.0 11.0 0.00 0.00 0.00 67 1010.3
20180622124349 60 5 2.0 5.0 0.00 0.00 0.00 69 1010.3
20180622122549 58 317 1.0 6.0 0.00 0.00 0.00 74 1010.4
20180622120749 57 252 3.0 7.0 0.00 0.00 0.00 77 1010.5
20180622115849 57 246 4.0 7.0 0.00 0.00 0.00 76 1010.5
20180622114049 57 258 5.0 9.0 0.00 0.00 0.00 75 1010.3
20180622113149 57 239 6.0 10.0 0.00 0.00 0.00 75 1010.3
20180622112249 58 264 6.0 10.0 0.00 0.00 0.00 73 1010.3
20180622111349 58 280 8.0 15.0 0.00 0.00 0.00 73 1010.3
20180622110449 57 278 8.0 12.0 0.00 0.00 0.00 75 1010.3
20180622105549 57 272 6.0 9.0 0.00 0.00 0.00 78 1010.3
20180622101949 57 233 2.0 6.0 0.00 0.00 0.00 78 1010.5
20180622100149 58 262 4.0 9.0 0.00 0.00 0.00 77 1010.4
20180622095249 57 252 3.0 8.0 0.00 0.00 0.00 78 1010.3
20180622094349 57 218 2.0 5.0 0.00 0.00 0.00 80 1010.3
20180622093449 57 194 1.0 4.0 0.00 0.00 0.00 80 1010.4
20180622091649 59 246 3.0 7.0 0.00 0.00 0.00 76 1010.3
20180622090749 59 260 2.0 4.0 0.00 0.00 0.00 75 1010.4
20180622085849 59 262 2.0 8.0 0.00 0.00 0.00 74 1010.3
20180622084949 59 259 4.0 8.0 0.00 0.00 0.00 74 1010.3
20180622084049 59 244 4.0 9.0 0.00 0.00 0.00 74 1010.3
20180622083149 60 236 1.0 9.0 0.00 0.00 0.00 73 1010.4
20180622082249 61 243 3.0 8.0 0.00 0.00 0.00 70 1010.4
20180622075548 62 272 5.0 8.0 0.00 0.00 0.00 64 1010.3
20180622074649 63 268 5.0 9.0 0.00 0.00 0.00 62 1010.3
20180622072849 63 270 3.0 6.0 0.00 0.00 0.00 60 1010.4
20180622071949 64 340 3.0 7.0 0.00 0.00 0.00 59 1010.4
20180622071048 65 342 3.0 6.0 0.00 0.00 0.00 55 1010.3
20180622065248 65 10 3.0 7.0 0.00 0.00 0.00 57 1010.5
20180622064349 66 347 3.0 7.0 0.00 0.00 0.00 55 1010.4
20180622063448 65 5 0.0 4.0 0.00 0.00 0.00 57 1010.4
20180622062548 64 0 0.0 0.0 0.00 0.00 0.00 59 1010.4
20180622061648 65 0 0.0 0.0 0.00 0.00 0.00 59 1010.4
20180622060748 66 75 2.0 6.0 0.00 0.00 0.00 57 1010.5
20180622055848 65 80 4.0 11.0 0.00 0.00 0.00 55 1010.4
20180622054948 64 85 5.0 12.0 0.00 0.00 0.00 63 1010.3
20180622053148 65 354 1.0 6.0 0.00 0.00 0.00 58 1010.1
20180622050448 66 356 6.0 13.0 0.00 0.00 0.00 57 1009.8
20180622045548 65 357 5.0 12.0 0.00 0.00 0.00 60 1009.9
20180622044648 65 359 4.0 9.0 0.00 0.00 0.00 61 1010.1
20180622042848 66 353 4.0 8.0 0.00 0.00 0.00 58 1010.1
20180622041048 67 357 6.0 11.0 0.00 0.00 0.00 55 1010.2
20180622040148 67 359 6.0 13.0 0.00 0.00 0.00 55 1010.2
20180622033448 68 1 8.0 13.0 0.00 0.00 0.00 53 1009.8
20180622032548 68 1 8.0 14.0 0.00 0.00 0.00 54 1009.7
20180622031648 68 1 8.0 13.0 0.00 0.00 0.00 53 1009.7
20180622030748 68 1 8.0 17.0 0.00 0.00 0.00 52 1009.7
20180622022248 74 359 5.0 10.0 0.00 0.00 0.00 47 1009.6
20180622013748 76 238 6.0 13.0 0.00 0.00 0.00 46 1009.7
20180622012848 78 213 3.0 8.0 0.00 0.00 0.00 44 1009.8
20180622011048 79 158 2.0 8.0 0.00 0.00 0.00 40 1009.8
20180622010148 80 173 2.0 6.0 0.00 0.00 0.00 36 1009.8
20180622005248 80 186 2.0 7.0 0.00 0.00 0.00 39 1009.8
20180622004348 80 205 2.0 7.0 0.00 0.00 0.00 39 1009.8
20180622003448 80 179 2.0 8.0 0.00 0.00 0.00 40 1009.8
20180621235848 77 157 6.0 12.0 0.00 0.00 0.00 44 1009.5
20180621234947 80 168 3.0 12.0 0.00 0.00 0.00 39 1009.5
20180621231348 80 158 3.0 11.0 0.00 0.00 0.00 33 1009.8
20180621225548 79 165 3.0 12.0 0.00 0.00 0.00 36 1010.0